Location: Santa Cristina
(46.5667°N, 11.7167°E)
Time: 17:49:45
(UTC+00:00)

CBERS-1 - Pass Details

Date: 21 April 2021
Orbit: 768 x 778 km, 98.7° (Epoch: 12 May)

Event Time Altitude Azimuth Distance (km) Brightness Sun altitude
Rises 01:42:03 0° 15° (NNE) 3,255 8.3 -22.6°
Reaches altitude 10° 01:44:23 10° 18° (NNE) 2,323 7.4 -22.3°
Maximum altitude 01:49:30 75° 103° (ESE) 802 4.1 -21.7°
Enters shadow 01:51:24 39° 180° (S) 1,138 4.5 -21.5°
